sat.trackr.live / text

‹ back to catalog

MOZHAETS 4 (RS22)

NORAD 27939 · 2003-042A

PAYLOAD ACTIVE UNKNOWN

§ Identity

Operator
Country
CIS
Launch date
2003-09-27
Launch site
PLMSC
Launch vehicle
Mass (kg)
RCS (m²)
0.69

Purposes: comms

External: N2YO · Heavens-Above · Gunter

§ Orbital elements

Epoch: 2026-05-25T04:50:58.658784Z

Period
97.73 min
Inclination
98.3475°
Eccentricity
0.0011018
Mean motion
14.73418067 rev/d
Perigee alt
642.4 km
Apogee alt
657.9 km
Semi-major
7,028.3 km
B*
6.6769e-5
RAAN
328.9125°
Arg perigee
348.6255°
Mean anomaly
130.9673°
Rev number
21,216

§ Raw data

MOZHAETS 4 (RS22)1 27939U 03042A   26145.20206781  .00000379  00000+0  66769-4 0  99992 27939  98.3475 328.9125 0011018 348.6255 130.9673 14.73418067212164

JSON: /api/v1/satellites/27939 · /tle

For live sub-satellite position, see the globe view (requires WebGL).

§ Visibility from observer

Set your observer location to see the next 7 days of passes ≥ 10°. The values pass through the URL so the page stays shareable.

No JS? Fill the form by hand. The geolocation button needs JavaScript.

§ Radio — SatNOGS DB

ModeDescriptionDownlinkUplink
CW Mode U CW Beacon 435.352 MHz
DOKA Mode U FM Doka 435.353 MHz
CW PE0SAT - CW Beacon 435.353 MHz

3 transmitters · refreshed weekly from db.satnogs.org